| time (UTC) | temp C | wind direction | speed KPH | gust KPH | rain 1hr cm | rain 24hr cm | rain mn cm | humidity % | barometer mb |
| 20260905051016 | 26 | 0.0 | 0.0 | 0.00 | 0.00 | 0.00 | 86 | 1014.1 | |
| 20260905050016 | 26 | 0.0 | 0.0 | 0.00 | 0.00 | 0.00 | 85 | 1014.2 | |
| 20260905045016 | 27 | 0.0 | 0.0 | 0.00 | 0.00 | 0.00 | 84 | 1014.2 | |
| 20260905044016 | 27 | 0.0 | 0.0 | 0.00 | 0.00 | 0.00 | 83 | 1014.1 | |
| 20260905043016 | 27 | 0.0 | 0.0 | 0.00 | 0.00 | 0.00 | 83 | 1014.1 | |
| 20260905042016 | 27 | 0.0 | 0.0 | 0.00 | 0.00 | 0.00 | 83 | 1014.1 | |
| 20260905041016 | 27 | 0.0 | 0.0 | 0.00 | 0.00 | 0.00 | 83 | 1014.1 | |
| 20260905040016 | 27 | 0.0 | 0.0 | 0.00 | 0.00 | 0.00 | 83 | 1014.1 | |
| 20260905035016 | 27 | 0.0 | 1.6 | 0.00 | 0.00 | 0.00 | 83 | 1014.1 | |
| 20260905034016 | 27 | 0.0 | 0.0 | 0.00 | 0.00 | 0.00 | 81 | 1014.2 | |
| 20260905033016 | 27 | 0.0 | 0.0 | 0.00 | 0.00 | 0.00 | 80 | 1014.2 | |
| 20260905032016 | 27 | 0.0 | 0.0 | 0.00 | 0.00 | 0.00 | 79 | 1014.2 | |
| 20260905031016 | 28 | 0.0 | 0.0 | 0.00 | 0.00 | 0.00 | 78 | 1014.3 | |
| 20260905030016 | 28 | 0.0 | 0.0 | 0.00 | 0.00 | 0.00 | 78 | 1014.3 | |
| 20260905025036 | 28 | 0.0 | 0.0 | 0.00 | 0.00 | 0.00 | 78 | 1014.3 | |
| 20260905024016 | 28 | 0.0 | 0.0 | 0.00 | 0.00 | 0.00 | 77 | 1014.1 | |
| 20260905023036 | 28 | 0.0 | 0.0 | 0.00 | 0.00 | 0.00 | 75 | 1014.0 | |
| 20260905022016 | 28 | 0.0 | 0.0 | 0.00 | 0.00 | 0.00 | 74 | 1013.9 | |
| 20260905021016 | 29 | 0.0 | 0.0 | 0.00 | 0.00 | 0.00 | 73 | 1014.0 | |
| 20260905020036 | 29 | 0.0 | 0.0 | 0.00 | 0.00 | 0.00 | 72 | 1013.7 | |
| 20260905015056 | 30 | 0.0 | 0.0 | 0.00 | 0.00 | 0.00 | 71 | 1013.6 | |
| 20260905014016 | 30 | 0.0 | 0.0 | 0.00 | 0.00 | 0.00 | 71 | 1013.6 | |
| 20260905013016 | 30 | 0.0 | 0.0 | 0.00 | 0.00 | 0.00 | 68 | 1013.4 | |
| 20260905012016 | 30 | 0.0 | 0.0 | 0.00 | 0.00 | 0.00 | 67 | 1013.3 | |
| 20260905011016 | 31 | 0.0 | 0.0 | 0.00 | 0.00 | 0.00 | 65 | 1013.1 | |
| 20260905010016 | 31 | 0.0 | 0.0 | 0.00 | 0.00 | 0.00 | 66 | 1013.1 | |
| 20260905005016 | 32 | 0.0 | 0.0 | 0.00 | 0.00 | 0.00 | 64 | 1013.1 | |
| 20260905004036 | 32 | 0.0 | 0.0 | 0.00 | 0.00 | 0.00 | 62 | 1013.1 | |
| 20260905003016 | 33 | 0.0 | 0.0 | 0.00 | 0.00 | 0.00 | 60 | 1013.2 | |
| 20260905002016 | 33 | 0.0 | 0.0 | 0.00 | 0.00 | 0.00 | 59 | 1013.1 | |
| 20260905001056 | 34 | 0.0 | 0.0 | 0.00 | 0.00 | 0.00 | 58 | 1013.0 | |
| 20260905000016 | 34 | 0.0 | 0.0 | 0.00 | 0.00 | 0.00 | 55 | 1013.0 | |
| 20260904235016 | 34 | 0.0 | 3.2 | 0.00 | 0.00 | 0.00 | 54 | 1013.0 | |
| 20260904234016 | 35 | 248 | 1.6 | 4.8 | 0.00 | 0.00 | 0.00 | 52 | 1013.0 |
| 20260904233016 | 35 | 248 | 3.2 | 4.8 | 0.00 | 0.00 | 0.00 | 51 | 1013.1 |
| 20260904232016 | 36 | 248 | 1.6 | 4.8 | 0.00 | 0.00 | 0.00 | 49 | 1013.2 |
| 20260904231016 | 36 | 270 | 1.6 | 4.8 | 0.00 | 0.00 | 0.00 | 47 | 1013.2 |
| 20260904230016 | 37 | 0.0 | 3.2 | 0.00 | 0.00 | 0.00 | 47 | 1013.3 | |
| 20260904225016 | 37 | 248 | 1.6 | 4.8 | 0.00 | 0.00 | 0.00 | 45 | 1013.3 |
| 20260904224016 | 37 | 270 | 3.2 | 6.4 | 0.00 | 0.00 | 0.00 | 46 | 1013.3 |
| 20260904223016 | 37 | 338 | 3.2 | 6.4 | 0.00 | 0.00 | 0.00 | 45 | 1013.3 |
| 20260904222016 | 37 | 248 | 3.2 | 8.0 | 0.00 | 0.00 | 0.00 | 46 | 1013.3 |
| 20260904221016 | 37 | 248 | 3.2 | 11.3 | 0.00 | 0.00 | 0.00 | 45 | 1013.4 |
| 20260904220017 | 38 | 0 | 1.6 | 6.4 | 0.00 | 0.00 | 0.00 | 45 | 1013.3 |
| 20260904215016 | 38 | 45 | 1.6 | 9.7 | 0.00 | 0.00 | 0.00 | 42 | 1013.3 |
| 20260904214036 | 38 | 270 | 3.2 | 9.7 | 0.00 | 0.00 | 0.00 | 43 | 1013.3 |
| 20260904213016 | 38 | 248 | 3.2 | 8.0 | 0.00 | 0.00 | 0.00 | 45 | 1013.4 |
| 20260904212036 | 38 | 315 | 3.2 | 9.7 | 0.00 | 0.00 | 0.00 | 44 | 1013.4 |
| 20260904211016 | 38 | 248 | 3.2 | 12.9 | 0.00 | 0.00 | 0.00 | 44 | 1013.5 |
| 20260904210016 | 38 | 248 | 3.2 | 11.3 | 0.00 | 0.00 | 0.00 | 42 | 1013.6 |
| 20260904205016 | 38 | 248 | 6.4 | 14.5 | 0.00 | 0.00 | 0.00 | 43 | 1013.8 |
| 20260904204056 | 38 | 248 | 3.2 | 12.9 | 0.00 | 0.00 | 0.00 | 43 | 1013.8 |
| 20260904203016 | 38 | 248 | 3.2 | 8.0 | 0.00 | 0.00 | 0.00 | 43 | 1014.0 |
| 20260904202036 | 38 | 248 | 4.8 | 11.3 | 0.00 | 0.00 | 0.00 | 44 | 1014.2 |
| 20260904201016 | 38 | 248 | 4.8 | 14.5 | 0.00 | 0.00 | 0.00 | 44 | 1014.3 |
| 20260904200056 | 38 | 225 | 6.4 | 12.9 | 0.00 | 0.00 | 0.00 | 42 | 1014.4 |
| 20260904195016 | 38 | 248 | 3.2 | 11.3 | 0.00 | 0.00 | 0.00 | 43 | 1014.5 |
| 20260904194016 | 38 | 270 | 3.2 | 11.3 | 0.00 | 0.00 | 0.00 | 43 | 1014.7 |
| 20260904193016 | 38 | 248 | 3.2 | 12.9 | 0.00 | 0.00 | 0.00 | 43 | 1015.0 |
| 20260904192016 | 38 | 248 | 3.2 | 12.9 | 0.00 | 0.00 | 0.00 | 41 | 1015.1 |
| 20260904191016 | 38 | 338 | 3.2 | 11.3 | 0.00 | 0.00 | 0.00 | 44 | 1015.4 |
| 20260904190016 | 38 | 248 | 3.2 | 12.9 | 0.00 | 0.00 | 0.00 | 44 | 1015.4 |
| 20260904185016 | 38 | 248 | 3.2 | 12.9 | 0.00 | 0.00 | 0.00 | 45 | 1015.5 |
| 20260904184016 | 38 | 248 | 6.4 | 16.1 | 0.00 | 0.00 | 0.00 | 45 | 1015.6 |
| 20260904183016 | 38 | 248 | 6.4 | 16.1 | 0.00 | 0.00 | 0.00 | 46 | 1015.7 |
| 20260904182016 | 38 | 248 | 6.4 | 16.1 | 0.00 | 0.00 | 0.00 | 47 | 1015.9 |
| 20260904181016 | 38 | 248 | 6.4 | 16.1 | 0.00 | 0.00 | 0.00 | 45 | 1015.9 |
| 20260904180016 | 38 | 248 | 4.8 | 14.5 | 0.00 | 0.00 | 0.00 | 47 | 1016.1 |
| 20260904175016 | 37 | 248 | 6.4 | 16.1 | 0.00 | 0.00 | 0.00 | 45 | 1016.2 |
| 20260904174016 | 37 | 248 | 4.8 | 12.9 | 0.00 | 0.00 | 0.00 | 48 | 1016.2 |
| 20260904173016 | 37 | 248 | 4.8 | 14.5 | 0.00 | 0.00 | 0.00 | 46 | 1016.4 |
| 20260904172016 | 37 | 248 | 6.4 | 14.5 | 0.00 | 0.00 | 0.00 | 48 | 1016.4 |
| 20260904171036 | 37 | 248 | 4.8 | 14.5 | 0.00 | 0.00 | 0.00 | 48 | 1016.4 |
| 20260904170016 | 37 | 248 | 3.2 | 11.3 | 0.00 | 0.00 | 0.00 | 49 | 1016.4 |
| 20260904165016 | 37 | 45 | 3.2 | 11.3 | 0.00 | 0.00 | 0.00 | 48 | 1016.5 |
| 20260904164036 | 37 | 248 | 3.2 | 12.9 | 0.00 | 0.00 | 0.00 | 49 | 1016.5 |
| 20260904163016 | 37 | 248 | 4.8 | 12.9 | 0.00 | 0.00 | 0.00 | 50 | 1016.4 |
| 20260904162016 | 37 | 248 | 4.8 | 12.9 | 0.00 | 0.00 | 0.00 | 49 | 1016.4 |
| 20260904161016 | 36 | 248 | 3.2 | 11.3 | 0.00 | 0.00 | 0.00 | 50 | 1016.5 |
| 20260904160036 | 36 | 248 | 4.8 | 14.5 | 0.00 | 0.00 | 0.00 | 53 | 1016.5 |
| 20260904155016 | 36 | 248 | 4.8 | 14.5 | 0.00 | 0.00 | 0.00 | 54 | 1016.6 |
| 20260904154036 | 35 | 270 | 3.2 | 8.0 | 0.00 | 0.00 | 0.00 | 54 | 1016.5 |
| 20260904153016 | 35 | 248 | 3.2 | 9.7 | 0.00 | 0.00 | 0.00 | 57 | 1016.6 |
| 20260904152016 | 34 | 225 | 3.2 | 6.4 | 0.00 | 0.00 | 0.00 | 62 | 1016.7 |
| 20260904151016 | 33 | 248 | 1.6 | 8.0 | 0.00 | 0.00 | 0.00 | 64 | 1016.7 |
| 20260904150016 | 33 | 270 | 1.6 | 8.0 | 0.00 | 0.00 | 0.00 | 66 | 1016.7 |
| 20260904145016 | 32 | 0.0 | 0.0 | 0.00 | 0.00 | 0.00 | 68 | 1016.7 | |
| 20260904144016 | 32 | 0.0 | 0.0 | 0.00 | 0.00 | 0.00 | 69 | 1016.8 | |
| 20260904143016 | 31 | 0.0 | 3.2 | 0.00 | 0.00 | 0.00 | 72 | 1016.8 | |
| 20260904142056 | 30 | 248 | 1.6 | 6.4 | 0.00 | 0.00 | 0.00 | 73 | 1016.6 |
| 20260904141016 | 30 | 180 | 1.6 | 4.8 | 0.00 | 0.00 | 0.00 | 77 | 1016.6 |
| 20260904140016 | 28 | 0.0 | 3.2 | 0.00 | 0.00 | 0.00 | 79 | 1016.6 | |
| 20260904135016 | 28 | 0.0 | 3.2 | 0.00 | 0.00 | 0.00 | 83 | 1016.6 | |
| 20260904134016 | 27 | 0.0 | 1.6 | 0.00 | 0.00 | 0.00 | 86 | 1016.6 | |
| 20260904133036 | 26 | 0.0 | 3.2 | 0.00 | 0.00 | 0.00 | 89 | 1016.5 | |
| 20260904132016 | 26 | 0.0 | 1.6 | 0.00 | 0.00 | 0.00 | 92 | 1016.6 | |
| 20260904131016 | 25 | 0.0 | 4.8 | 0.00 | 0.00 | 0.00 | 93 | 1016.3 | |
| 20260904130036 | 25 | 0.0 | 0.0 | 0.00 | 0.00 | 0.00 | 94 | 1016.4 | |
| 20260904125016 | 24 | 0.0 | 0.0 | 0.00 | 0.00 | 0.00 | 93 | 1016.4 | |
| 20260904124016 | 24 | 0.0 | 0.0 | 0.00 | 0.00 | 0.00 | 94 | 1016.3 | |
| 20260904123016 | 23 | 0.0 | 0.0 | 0.00 | 0.00 | 0.00 | 94 | 1016.1 | |
| 20260904122016 | 23 | 0.0 | 0.0 | 0.00 | 0.00 | 0.00 | 93 | 1016.1 | |
| 20260904121036 | 23 | 0.0 | 4.8 | 0.00 | 0.00 | 0.00 | 93 | 1016.1 | |
| 20260904120016 | 23 | 0.0 | 0.0 | 0.00 | 0.00 | 0.00 | 93 | 1016.1 | |
| 20260904115016 | 23 | 0.0 | 0.0 | 0.00 | 0.00 | 0.00 | 92 | 1016.1 | |
| 20260904114016 | 23 | 0.0 | 0.0 | 0.00 | 0.00 | 0.00 | 92 | 1015.9 | |
| 20260904113016 | 23 | 0.0 | 0.0 | 0.00 | 0.00 | 0.00 | 92 | 1016.0 | |
| 20260904112016 | 23 | 0.0 | 0.0 | 0.00 | 0.00 | 0.00 | 92 | 1015.8 | |
| 20260904111016 | 23 | 0.0 | 0.0 | 0.00 | 0.00 | 0.00 | 91 | 1015.8 | |
| 20260904110016 | 23 | 0.0 | 0.0 | 0.00 | 0.00 | 0.00 | 91 | 1015.7 | |
| 20260904105016 | 23 | 0.0 | 0.0 | 0.00 | 0.00 | 0.00 | 91 | 1015.6 | |
| 20260904104016 | 23 | 0.0 | 0.0 | 0.00 | 0.00 | 0.00 | 91 | 1015.7 | |
| 20260904103016 | 23 | 0.0 | 0.0 | 0.00 | 0.00 | 0.00 | 91 | 1015.5 | |
| 20260904102036 | 23 | 0.0 | 0.0 | 0.00 | 0.00 | 0.00 | 90 | 1015.5 | |
| 20260904101016 | 23 | 0.0 | 0.0 | 0.00 | 0.00 | 0.00 | 91 | 1015.5 | |
| 20260904100016 | 23 | 0.0 | 0.0 | 0.00 | 0.00 | 0.00 | 90 | 1015.6 | |
| 20260904095016 | 23 | 0.0 | 0.0 | 0.00 | 0.00 | 0.00 | 90 | 1015.5 | |
| 20260904094016 | 23 | 0.0 | 0.0 | 0.00 | 0.00 | 0.00 | 90 | 1015.5 | |
| 20260904093036 | 23 | 0.0 | 0.0 | 0.00 | 0.00 | 0.00 | 90 | 1015.4 | |
| 20260904092016 | 23 | 0.0 | 0.0 | 0.00 | 0.00 | 0.00 | 90 | 1015.5 | |
| 20260904091016 | 23 | 0.0 | 0.0 | 0.00 | 0.00 | 0.00 | 90 | 1015.5 | |
| 20260904090016 | 23 | 0.0 | 0.0 | 0.00 | 0.00 | 0.00 | 90 | 1015.5 | |
| 20260904085016 | 23 | 0.0 | 0.0 | 0.00 | 0.00 | 0.00 | 90 | 1015.5 | |
| 20260904084016 | 23 | 0.0 | 0.0 | 0.00 | 0.00 | 0.00 | 90 | 1015.4 | |
| 20260904083016 | 23 | 0.0 | 0.0 | 0.00 | 0.00 | 0.00 | 89 | 1015.4 | |
| 20260904082016 | 23 | 0.0 | 0.0 | 0.00 | 0.00 | 0.00 | 89 | 1015.3 | |
| 20260904081016 | 23 | 0.0 | 0.0 | 0.00 | 0.00 | 0.00 | 89 | 1015.3 | |
| 20260904080036 | 24 | 0.0 | 0.0 | 0.00 | 0.00 | 0.00 | 89 | 1015.3 | |
| 20260904075016 | 24 | 0.0 | 0.0 | 0.00 | 0.00 | 0.00 | 89 | 1015.3 | |
| 20260904074036 | 24 | 0.0 | 0.0 | 0.00 | 0.00 | 0.00 | 89 | 1015.1 | |
| 20260904073036 | 24 | 0.0 | 0.0 | 0.00 | 0.00 | 0.00 | 88 | 1015.1 | |
| 20260904072016 | 24 | 0.0 | 0.0 | 0.00 | 0.00 | 0.00 | 88 | 1015.0 | |
| 20260904071016 | 25 | 0.0 | 0.0 | 0.00 | 0.00 | 0.00 | 88 | 1015.2 | |
| 20260904070016 | 25 | 0.0 | 0.0 | 0.00 | 0.00 | 0.00 | 87 | 1015.2 | |
| 20260904065016 | 25 | 0.0 | 0.0 | 0.00 | 0.00 | 0.00 | 87 | 1015.3 | |
| 20260904064016 | 25 | 0.0 | 0.0 | 0.00 | 0.00 | 0.00 | 87 | 1015.5 | |
| 20260904063016 | 25 | 0.0 | 0.0 | 0.00 | 0.00 | 0.00 | 87 | 1015.2 | |
| 20260904062016 | 25 | 0.0 | 0.0 | 0.00 | 0.00 | 0.00 | 87 | 1015.4 | |
| 20260904061016 | 25 | 0.0 | 0.0 | 0.00 | 0.00 | 0.00 | 86 | 1015.3 | |
| 20260904060016 | 25 | 0.0 | 0.0 | 0.00 | 0.00 | 0.00 | 86 | 1015.4 | |
| 20260904055016 | 25 | 0.0 | 0.0 | 0.00 | 0.00 | 0.00 | 85 | 1015.5 | |
| 20260904054016 | 25 | 0.0 | 0.0 | 0.00 | 0.00 | 0.00 | 85 | 1015.5 | |
| 20260904053036 | 26 | 0.0 | 0.0 | 0.00 | 0.00 | 0.00 | 85 | 1015.5 | |
| 20260904052016 | 26 | 0.0 | 0.0 | 0.00 | 0.00 | 0.00 | 84 | 1015.7 |